Location: Unspecified
(47.0835°N, 11.5736°E)
Time: 19:28:49
(UTC+01:00)

Envisat - Visible Passes

Search period start: 22 January 2022 00:00
Search period end: 01 February 2022 00:00
Orbit: 764 x 766 km, 98.2° (Epoch: 22 January)

Date Brightness Start Highest point End Pass type
(mag) Time Alt. Az. Time Alt. Az. Time Alt. Az.
22 Jan 4.5 04:29:48 10° NNE 04:34:25 34° E 04:39:00 10° SSE visible
22 Jan 3.5 06:08:50 10° N 06:13:26 35° WNW 06:18:00 10° SW visible
22 Jan 5.8 17:27:51 10° SW 17:31:28 20° W 17:35:07 10° NW visible
23 Jan 5.6 03:54:00 10° NE 03:57:11 16° E 04:00:20 10° SE visible
23 Jan 2.8 05:31:39 10° N 05:36:44 71° WNW 05:41:46 10° SSW visible
23 Jan 4.7 07:13:02 10° NNW 07:14:50 12° NW 07:16:38 10° WNW visible
24 Jan 3.5 04:54:49 10° NNE 04:59:49 56° E 05:04:49 10° S visible
24 Jan 4.1 06:34:35 10° NNW 06:38:28 22° WNW 06:42:20 10° WSW visible
24 Jan 6.3 17:55:30 10° WSW 17:57:06 11° W 17:58:42 10° WNW visible
25 Jan 4.9 04:18:26 10° NE 04:22:44 27° E 04:27:01 10° SSE visible
25 Jan 3.3 05:57:06 10° N 06:01:54 43° WNW 06:06:41 10° SW visible
26 Jan 5.8 03:43:07 10° ENE 03:45:26 13° E 03:47:44 10° ESE visible
26 Jan 2.9 05:20:01 10° NNE 05:25:09 88° W 05:30:14 10° SSW visible
26 Jan 4.6 07:00:44 10° NNW 07:03:25 15° NW 07:06:05 10° W visible
27 Jan 4.0 04:43:18 10° NNE 04:48:11 45° E 04:53:02 10° S visible
27 Jan 3.9 06:22:45 10° N 06:26:59 27° WNW 06:31:13 10° WSW visible
27 Jan 6.0 17:42:35 10° WSW 17:45:21 15° W 17:48:07 10° NW visible
28 Jan 5.2 04:07:07 10° NE 04:11:02 22° E 04:14:55 10° SE visible
28 Jan 3.0 05:45:25 10° N 05:50:22 53° WNW 05:55:18 10° SW visible
29 Jan 3.1 05:08:26 10° NNE 05:13:33 75° ESE 05:18:37 10° S visible
29 Jan 4.4 06:48:41 10° NNW 06:51:59 18° WNW 06:55:16 10° W visible
30 Jan 4.4 04:31:51 10° NNE 04:36:32 36° E 04:41:11 10° SSE visible
30 Jan 3.6 06:10:58 10° N 06:15:29 33° WNW 06:20:00 10° SW visible
31 Jan 5.5 03:55:56 10° NE 03:59:18 18° E 04:02:40 10° SE visible
31 Jan 2.9 05:33:45 10° N 05:38:48 67° WNW 05:43:50 10° SSW visible
